TimeCST,TemperatureF,Dew PointF,Humidity,Sea Level PressureIn,VisibilityMPH,Wind Direction,Wind SpeedMPH,Gust SpeedMPH,PrecipitationIn,Events,Conditions,WindDirDegrees,DateUTC
12:53 AM,19.0,9.0,65,30.20,10.0,NW,5.8,-,N/A,,Clear,310,2011-11-30 06:53:00
1:53 AM,19.0,10.0,68,30.19,10.0,WNW,6.9,-,N/A,,Clear,290,2011-11-30 07:53:00
2:53 AM,19.0,9.0,65,30.19,10.0,WNW,5.8,-,N/A,,Clear,300,2011-11-30 08:53:00
3:53 AM,19.9,9.0,62,30.17,10.0,West,5.8,-,N/A,,Clear,270,2011-11-30 09:53:00
4:53 AM,21.9,8.1,55,30.16,10.0,SW,4.6,-,N/A,,Clear,230,2011-11-30 10:53:00
5:53 AM,19.0,10.0,68,30.16,10.0,SSW,6.9,-,N/A,,Clear,210,2011-11-30 11:53:00
6:53 AM,19.0,9.0,65,30.15,10.0,SSW,6.9,-,N/A,,Clear,210,2011-11-30 12:53:00
7:53 AM,19.9,10.9,68,30.16,10.0,SSW,6.9,-,N/A,,Clear,210,2011-11-30 13:53:00
8:53 AM,28.9,17.1,61,30.16,10.0,SSW,8.1,-,N/A,,Clear,200,2011-11-30 14:53:00
9:53 AM,34.0,16.0,48,30.15,10.0,South,8.1,-,N/A,,Clear,190,2011-11-30 15:53:00
10:53 AM,37.9,12.9,36,30.14,10.0,South,10.4,-,N/A,,Clear,190,2011-11-30 16:53:00
11:53 AM,39.9,9.0,28,30.09,10.0,South,13.8,-,N/A,,Clear,190,2011-11-30 17:53:00
12:53 PM,44.1,10.0,25,30.06,10.0,SSW,13.8,-,N/A,,Clear,200,2011-11-30 18:53:00
1:53 PM,45.0,14.0,29,30.04,10.0,South,11.5,16.1,N/A,,Clear,180,2011-11-30 19:53:00
2:53 PM,45.0,12.9,27,30.01,10.0,South,11.5,20.7,N/A,,Clear,170,2011-11-30 20:53:00
3:53 PM,44.1,12.9,28,30.03,10.0,South,9.2,-,N/A,,Clear,180,2011-11-30 21:53:00
4:53 PM,42.1,12.9,31,30.02,10.0,South,11.5,18.4,N/A,,Clear,170,2011-11-30 22:53:00
5:53 PM,41.0,15.1,35,30.02,10.0,SSE,10.4,17.3,N/A,,Clear,160,2011-11-30 23:53:00
6:53 PM,39.9,14.0,35,30.02,10.0,SSE,9.2,-,N/A,,Clear,160,2011-12-01 00:53:00
7:53 PM,37.9,16.0,41,30.03,10.0,South,11.5,-,N/A,,Clear,170,2011-12-01 01:53:00
8:53 PM,36.0,16.0,44,30.04,10.0,South,8.1,-,N/A,,Clear,180,2011-12-01 02:53:00
9:53 PM,35.1,15.1,44,30.06,10.0,South,6.9,-,N/A,,Clear,170,2011-12-01 03:53:00
10:53 PM,34.0,15.1,46,30.07,10.0,South,8.1,-,N/A,,Clear,170,2011-12-01 04:53:00
11:53 PM,33.1,15.1,48,30.08,10.0,South,6.9,-,N/A,,Clear,170,2011-12-01 05:53:00